User: anonymous   Login
Location: Columbia
(38.9520°N, 92.3340°W)
Time: 15:37:44
(UTC-05:00)
Language:

Cosmos 1603 - Orbit

View from above orbital plane
View from above orbital plane
View from above satellite
View from above satellite

Ground track
Ground track

The orbit data is extracted from the following two-line orbital elements,

1 15333U 84106A   16240.84854698 +.00000022 +00000-0 +36707-4 0  9990
2 15333 071.0276 346.6083 0021502 291.1039 068.7784 14.14034237646550
Epoch (UTC): 27 August 2016 20:21:54
Eccentricity: 0.0021502
inclination: 71.0276°
perigee height: 830 km
apogee height: 861 km
right ascension of ascending node: 346.6083°
argument of perigee: 291.1039°
revolutions per day: 14.14034237
mean anomaly at epoch: 68.7784°
orbit number at epoch: 64655

The dashed part of the orbit path shows where the satellite is in the earth's shadow,  

DLR